Time,TemperatureF,DewpointF,PressureIn,WindDirection,WindDirectionDegrees,WindSpeedMPH,WindSpeedGustMPH,Humidity,HourlyPrecipIn,Conditions,Clouds,dailyrainin,SoftwareType,DateUTC
2013-01-06 15:02:00,35.0,14.0,-100.00,WSW,250,6.0,10.0,41,0.00,,,-99.99,,2013-01-06 21:02:00,
2013-01-06 15:22:00,36.0,15.0,-100.00,West,260,6.0,9.0,40,0.00,,,-99.99,,2013-01-06 21:22:00,
2013-01-06 15:33:00,36.0,15.0,-100.00,West,265,7.0,9.0,40,0.00,,,-99.99,,2013-01-06 21:33:00,
2013-01-06 15:42:00,36.0,15.0,-100.00,West,265,7.0,9.0,40,0.00,,,-99.99,,2013-01-06 21:42:00,
2013-01-06 15:52:00,37.0,15.0,-100.00,WSW,240,5.0,9.0,39,0.00,,,-99.99,,2013-01-06 21:52:00,
2013-01-06 16:02:00,37.0,15.0,-100.00,WSW,240,5.0,9.0,39,0.00,,,-99.99,,2013-01-06 22:02:00,
2013-01-06 16:12:00,36.0,14.0,-100.00,WSW,250,6.0,9.0,40,0.00,,,-99.99,,2013-01-06 22:12:00,
2013-01-06 16:22:00,36.0,15.0,-100.00,SW,230,5.0,10.0,40,0.00,,,-99.99,,2013-01-06 22:22:00,
2013-01-06 16:33:00,36.0,14.0,-100.00,WSW,250,5.0,9.0,40,0.00,,,-99.99,,2013-01-06 22:33:00,
2013-01-06 16:43:00,36.0,14.0,-100.00,WSW,245,5.0,7.0,40,0.00,,,-99.99,,2013-01-06 22:43:00,
2013-01-06 16:52:00,35.0,14.0,-100.00,SSW,200,3.0,5.0,41,0.00,,,-99.99,,2013-01-06 22:52:00,
2013-01-06 17:02:00,35.0,14.0,-100.00,SSW,200,3.0,5.0,41,0.00,,,-99.99,,2013-01-06 23:02:00,
2013-01-06 17:12:00,34.0,14.0,-100.00,SSW,205,3.0,6.0,42,0.00,,,-99.99,,2013-01-06 23:12:00,
2013-01-06 17:22:00,33.0,13.0,-100.00,SSW,210,4.0,6.0,43,0.00,,,-99.99,,2013-01-06 23:22:00,
2013-01-06 17:33:00,32.0,13.0,-100.00,SSW,205,4.0,6.0,45,0.00,,,-99.99,,2013-01-06 23:33:00,
2013-01-06 17:42:00,31.0,13.0,-100.00,SSW,210,4.0,6.0,47,0.00,,,-99.99,,2013-01-06 23:42:00,
2013-01-06 17:52:00,31.0,14.0,-100.00,SSW,195,6.0,8.0,49,0.00,,,-99.99,,2013-01-06 23:52:00,
2013-01-06 18:02:00,31.0,14.0,-100.00,SSW,195,6.0,8.0,49,0.00,,,-99.99,,2013-01-07 00:02:00,
2013-01-06 18:12:00,30.0,15.0,-100.00,SSW,205,6.0,9.0,51,0.00,,,-99.99,,2013-01-07 00:12:00,
2013-01-06 18:23:00,29.0,15.0,-100.00,SSW,205,6.0,8.0,53,0.00,,,-99.99,,2013-01-07 00:23:00,
2013-01-06 18:33:00,29.0,15.0,-100.00,SSW,200,6.0,8.0,56,0.00,,,-99.99,,2013-01-07 00:33:00,
2013-01-06 18:42:00,29.0,15.0,-100.00,SSW,200,6.0,8.0,56,0.00,,,-99.99,,2013-01-07 00:42:00,
2013-01-06 18:52:00,28.0,16.0,-100.00,SSW,195,6.0,9.0,58,0.00,,,-99.99,,2013-01-07 00:52:00,
2013-01-06 19:02:00,28.0,16.0,-100.00,SSW,195,6.0,9.0,58,0.00,,,-99.99,,2013-01-07 01:02:00,
2013-01-06 19:12:00,29.0,16.0,-100.00,South,190,7.0,10.0,59,0.00,,,-99.99,,2013-01-07 01:12:00,
2013-01-06 19:22:00,28.0,16.0,-100.00,South,190,7.0,9.0,59,0.00,,,-99.99,,2013-01-07 01:22:00,
2013-01-06 19:32:00,28.0,16.0,-100.00,South,185,7.0,9.0,60,0.00,,,-99.99,,2013-01-07 01:32:00,
2013-01-06 19:42:00,27.0,16.0,-100.00,South,185,7.0,9.0,62,0.00,,,-99.99,,2013-01-07 01:42:00,
2013-01-06 19:52:00,27.0,17.0,-100.00,South,180,7.0,9.0,64,0.00,,,-99.99,,2013-01-07 01:52:00,
2013-01-06 20:02:00,27.0,17.0,-100.00,South,180,7.0,9.0,64,0.00,,,-99.99,,2013-01-07 02:02:00,
2013-01-06 20:12:00,27.0,17.0,-100.00,South,180,6.0,8.0,65,0.00,,,-99.99,,2013-01-07 02:12:00,
2013-01-06 20:22:00,26.0,16.0,-100.00,South,180,6.0,9.0,65,0.00,,,-99.99,,2013-01-07 02:22:00,
2013-01-06 20:32:00,26.0,17.0,-100.00,South,175,6.0,9.0,69,0.00,,,-99.99,,2013-01-07 02:32:00,
2013-01-06 20:42:00,26.0,17.0,-100.00,South,175,6.0,9.0,69,0.00,,,-99.99,,2013-01-07 02:42:00,
2013-01-06 20:52:00,26.0,17.0,-100.00,SSW,195,7.0,11.0,69,0.00,,,-99.99,,2013-01-07 02:52:00,
2013-01-06 21:02:00,26.0,17.0,-100.00,SSW,195,7.0,11.0,69,0.00,,,-99.99,,2013-01-07 03:02:00,
2013-01-06 21:12:00,26.0,17.0,-100.00,South,175,7.0,10.0,69,0.00,,,-99.99,,2013-01-07 03:12:00,
2013-01-06 21:22:00,25.0,17.0,-100.00,SSE,165,6.0,9.0,70,0.00,,,-99.99,,2013-01-07 03:22:00,
2013-01-06 21:33:00,25.0,17.0,-100.00,SSE,165,6.0,8.0,71,0.00,,,-99.99,,2013-01-07 03:33:00,
2013-01-06 21:42:00,24.0,17.0,-100.00,SSE,165,6.0,9.0,72,0.00,,,-99.99,,2013-01-07 03:42:00,
2013-01-06 21:52:00,25.0,17.0,-100.00,SSE,165,7.0,11.0,72,0.00,,,-99.99,,2013-01-07 03:52:00,
2013-01-06 22:02:00,25.0,17.0,-100.00,SSE,165,7.0,11.0,72,0.00,,,-99.99,,2013-01-07 04:02:00,
2013-01-06 22:12:00,25.0,17.0,-100.00,SSE,165,7.0,11.0,73,0.00,,,-99.99,,2013-01-07 04:12:00,
2013-01-06 22:22:00,25.0,17.0,-100.00,South,170,7.0,12.0,73,0.00,,,-99.99,,2013-01-07 04:22:00,
2013-01-06 22:32:00,24.0,17.0,-100.00,South,170,7.0,12.0,74,0.00,,,-99.99,,2013-01-07 04:32:00,
2013-01-06 22:42:00,24.0,17.0,-100.00,South,170,7.0,12.0,74,0.00,,,-99.99,,2013-01-07 04:42:00,
2013-01-06 22:52:00,24.0,17.0,-100.00,South,170,9.0,12.0,74,0.00,,,-99.99,,2013-01-07 04:52:00,
2013-01-06 23:02:00,24.0,17.0,-100.00,South,170,9.0,12.0,74,0.00,,,-99.99,,2013-01-07 05:02:00,
2013-01-06 23:12:00,24.0,17.0,-100.00,South,170,10.0,14.0,74,0.00,,,-99.99,,2013-01-07 05:12:00,
2013-01-06 23:22:00,25.0,18.0,-100.00,South,180,9.0,13.0,74,0.00,,,-99.99,,2013-01-07 05:22:00,
2013-01-06 23:33:00,25.0,18.0,-100.00,South,175,9.0,17.0,74,0.00,,,-99.99,,2013-01-07 05:33:00,
2013-01-06 23:42:00,25.0,18.0,-100.00,South,175,9.0,17.0,74,0.00,,,-99.99,,2013-01-07 05:42:00,
2013-01-06 23:52:00,24.0,17.0,-100.00,SSE,165,9.0,12.0,74,0.00,,,-99.99,,2013-01-07 05:52:00,